Regional Weather Roundup
Issued by NWS

Home | Current Version | Previous Version | Text Only | Print | Product List | Glossary On
Versions: 1 2 3 4 5 6 7 8 9 10 11 12 13 14 15 16 17 18 19 20 21 22 23 24 25 26 27 28 29 30 31 32 33 34 35 36 37 38 39 40 41 42 43 44 45 46 47 48 49 50
000
ASUS43 KTOP 271759
RWRKS

WEATHER ROUNDUP FOR KANSAS
NATIONAL WEATHER SERVICE GOODLAND KS
100 PM CDT TUE JUN 27 2017

NOTE:  "FAIR" INDICATES FEW OR NO CLOUDS BELOW 12,000 FEET WITH NO
SIGNIFICANT WEATHER AND/OR OBSTRUCTIONS TO VISIBILITY.

KSZ001>006-013>018-027>032-041>047-271900-
NORTHWEST KANSAS

CITY           SKY/WX    TMP DP  RH WIND       PRES   REMARKS
GOODLAND       SUNNY     80  64  58 S18       29.89F
6HR MIN TEMP:  59; 6HR MAX TEMP:  80;

HAYS           SUNNY     89  63  41 S17G24    29.89F
HILL CITY      SUNNY     84  68  58 SE13G23   29.89F
6HR MIN TEMP:  62; 6HR MAX TEMP:  84;

RUSSELL        SUNNY     88  66  48 S23G29    29.90F
6HR MIN TEMP:  63; 6HR MAX TEMP:  88;

$$

KSZ061>065-074>080-084>089-271900-
SOUTHWEST KANSAS

CITY           SKY/WX    TMP DP  RH WIND       PRES   REMARKS
DODGE CITY     SUNNY     89  57  33 S23G31    29.93F
6HR MIN TEMP:  66; 6HR MAX TEMP:  89;

ELKHART          N/A     86  50  28 S16         N/A
GARDEN CITY    SUNNY     93  53  25 S26G32    29.91F
6HR MIN TEMP:  64; 6HR MAX TEMP:  93;

GREAT BEND     SUNNY     89  68  49 S22       29.91F
LIBERAL        SUNNY     90  60  36 SW22G28   29.95F
$$

KSZ066>073-081>083-090>101-271900-
SOUTHEAST KANSAS

CITY           SKY/WX    TMP DP  RH WIND       PRES   REMARKS
CHANUTE        CLOUDY    82  68  62 SE9       30.02F
6HR MIN TEMP:  63; 6HR MAX TEMP:  82;

COFFEYVILLE    CLOUDY    79  66  64 S13       30.03F
6HR MIN TEMP:  66; 6HR MAX TEMP:  79;

HUTCHINSON     SUNNY     89  67  47 S18G26    29.94F
6HR MIN TEMP:  65; 6HR MAX TEMP:  89;

MEDICINE LODGE   N/A     90  66  45 S15G24    29.93F
NEWTON         PTSUNNY   80  70  71 SE15      29.98F
PARSONS        CLOUDY    79  65  62 S8        30.03F
6HR MIN TEMP:  65; 6HR MAX TEMP:  79;

WICHITA INTL   MOSUNNY   85  71  63 S13G21    29.96F
6HR MIN TEMP:  65; 6HR MAX TEMP:  86; 6HR PCP: TRACE;

WICHITA JABRA  MOSUNNY   79  72  79 SE8       29.98F
6HR MIN TEMP:  64; 6HR MAX TEMP:  79; 6HR PCP:  0.11;

WINFIELD       MOSUNNY   84  72  67 S13       30.00F
6HR MIN TEMP:  65; 6HR MAX TEMP:  84;

$$

KSZ007>012-019>026-033>040-048>060-102>105-271900-
NORTHEAST KANSAS

CITY           SKY/WX    TMP DP  RH WIND       PRES   REMARKS
CONCORDIA      SUNNY     80  66  62 S21G26    29.94F
6HR MIN TEMP:  58; 6HR MAX TEMP:  81;

EMPORIA        PTSUNNY   76  68  76 S13G18    30.01S
6HR MIN TEMP:  60; 6HR MAX TEMP:  78; 6HR PCP: TRACE;

LAWRENCE       MOSUNNY   78  64  61 SE16G22   30.03F
6HR MIN TEMP:  57; 6HR MAX TEMP:  78;

MANHATTAN      PTSUNNY   77  65  66 SE14      29.99F
6HR MIN TEMP:  60; 6HR MAX TEMP:  79;

OLATHE IND     MOSUNNY   77  63  61 SE12      30.04F
6HR MIN TEMP:  58; 6HR MAX TEMP:  77;

OLATHE EXE     SUNNY     76  63  64 S10       30.05F
6HR MIN TEMP:  58; 6HR MAX TEMP:  76;

SALINA         MOSUNNY   86  69  56 S18G26    29.94F
6HR MIN TEMP:  66; 6HR MAX TEMP:  86;

TOPEKA BILLARD PTSUNNY   77  66  68 SE13      30.01F
6HR MIN TEMP:  59; 6HR MAX TEMP:  77;

TOPEKA FORBES  MOSUNNY   79  66  64 SE15      30.02F
6HR MIN TEMP:  60; 6HR MAX TEMP:  79;

$$




USA.gov is the U.S. government's official web portal to all federal, state and local government web resources and services.